Change the Weather History Date:

Monday, September 9, 2013

  Actual Average (KDBQ) Record (KDBQ)
Temperature  
Mean Temperature 80 °F 65 °F  
Max Temperature 95 °F 75 °F 97 °F (1955)
Min Temperature 66 °F 55 °F 34 °F (1883)
Degree Days  
Heating Degree Days 0 3  
Month to date heating degree days 21  
Since 1 July heating degree days 48  
Cooling Degree Days 16 3  
Month to date cooling degree days 30  
Year to date cooling degree days 606  
Growing Degree Days 30 (Base 50)    
Moisture  
Dew Point 67 °F    
Average Humidity 73    
Maximum Humidity 94    
Minimum Humidity 40    
Precipitation  
Precipitation 0.00 in 0.12 in 4.95 in (1875)
Month to date precipitation 1.07  
Year to date precipitation 27.05  
Snow  
Snow 0.00 in 0.00 in - ()
Month to date snowfall 0.0  
Since 1 July snowfall 0.0  
Since 1 September snowfall 0.0  
Snow Depth -    
Sea Level Pressure  
Sea Level Pressure 29.87 in    
Wind  
Wind Speed 9 mph (SSE)    
Max Wind Speed 16 mph    
Max Gust Speed 20 mph    
Visibility 8 miles    
Events      
T = Trace of Precipitation, MM = Missing Value Source: NWS Daily Summary

Daily Weather History Graph

Daily Weather History Graph

Search for Another Location

Airport or City:

Trip Planner

Search our weather history database for the weather conditions in past years. The results will help you decide how hot, cold, wet, or windy it might be!

Date:

Astronomy

Sep. 09, 2013 Rise Set
Actual Time 6:35 AM CDT 7:21 PM CDT
Civil Twilight 6:06 AM CDT 7:50 PM CDT
Nautical Twilight 5:32 AM CDT 8:24 PM CDT
Astronomical Twilight 4:57 AM CDT 8:59 PM CDT
Moon 11:04 AM CDT (9/9) 9:31 PM CDT (9/9)
Length of Visible Light 13h 43m
Length of Day
12h 46m
Waxing Crescent, 19% of the Moon is Illuminated
Sep 9
Waxing Crescent
Sep 12
First Quarter
Sep 19
Full
Sep 26
Last Quarter
Oct 4
New

Hourly Weather History & Observations

Time (CDT) Temp. Heat Index Dew Point Humidity Pressure Visibility Wind Dir Wind Speed Gust Speed Precip Events Conditions
12:15 AM 68.9 °F - 64.4 °F 86% 29.95 in 10.0 mi East 12.7 mph - N/A   Clear
12:35 AM 68.4 °F - 64.0 °F 86% 29.95 in 10.0 mi East 11.5 mph - N/A   Clear
12:55 AM 68.0 °F - 63.9 °F 87% 29.94 in 10.0 mi East 11.5 mph - N/A   Clear
1:15 AM 67.6 °F - 63.9 °F 88% 29.94 in 10.0 mi East 11.5 mph - N/A   Clear
1:35 AM 67.6 °F - 63.9 °F 88% 29.94 in 10.0 mi East 12.7 mph - N/A   Clear
1:55 AM 67.5 °F - 63.9 °F 88% 29.93 in 10.0 mi ESE 11.5 mph - N/A   Clear
2:15 AM 67.3 °F - 64.0 °F 89% 29.93 in 7.0 mi East 10.4 mph - N/A   Clear
2:35 AM 67.1 °F - 63.9 °F 89% 29.92 in 7.0 mi East 10.4 mph - N/A   Clear
2:55 AM 67.1 °F - 64.0 °F 90% 29.92 in 7.0 mi East 9.2 mph - N/A   Clear
3:15 AM 67.1 °F - 64.0 °F 90% 29.91 in 7.0 mi East 9.2 mph - N/A   Clear
3:35 AM 67.1 °F - 64.0 °F 90% 29.91 in 7.0 mi East 10.4 mph - N/A   Clear
3:55 AM 66.9 °F - 64.2 °F 91% 29.90 in 5.0 mi East 9.2 mph - N/A   Clear
4:15 AM 66.7 °F - 64.4 °F 92% 29.90 in 5.0 mi ESE 6.9 mph - N/A   Clear
4:35 AM 66.7 °F - 64.4 °F 92% 29.89 in 5.0 mi East 8.1 mph - N/A   Clear
4:55 AM 66.6 °F - 64.4 °F 93% 29.89 in 5.0 mi ESE 6.9 mph - N/A   Clear
5:15 AM 66.6 °F - 64.4 °F 93% 29.88 in 4.0 mi East 8.1 mph - N/A   Clear
5:35 AM 66.4 °F - 64.4 °F 93% 29.88 in 4.0 mi East 6.9 mph - N/A   Clear
5:55 AM 66.4 °F - 64.4 °F 93% 29.88 in 3.0 mi East 5.8 mph - N/A   Clear
6:15 AM 66.2 °F - 64.4 °F 94% 29.88 in 3.0 mi East 3.5 mph - N/A   Clear
6:35 AM 66.2 °F - 64.4 °F 94% 29.88 in 2.5 mi ESE 5.8 mph - N/A   Clear
6:55 AM 66.2 °F - 64.4 °F 94% 29.89 in 1.8 mi ESE 3.5 mph - N/A   Unknown
7:15 AM 66.4 °F - 64.6 °F 94% 29.89 in 1.8 mi East 3.5 mph - N/A   Unknown
7:35 AM 66.7 °F - 64.9 °F 94% 29.89 in 1.8 mi ESE 3.5 mph - N/A   Mostly Cloudy
7:55 AM 67.6 °F - 65.8 °F 94% 29.89 in 2.0 mi ESE 5.8 mph - N/A   Overcast
8:15 AM 68.9 °F - 67.1 °F 94% 29.89 in 2.5 mi SE 5.8 mph - N/A   Overcast
8:35 AM 69.8 °F - 67.5 °F 92% 29.88 in 2.5 mi SSE 8.1 mph - N/A   Overcast
8:55 AM 70.7 °F - 68.4 °F 92% 29.88 in 3.0 mi SSE 8.1 mph - N/A   Overcast
9:15 AM 72.1 °F - 69.1 °F 90% 29.88 in 4.0 mi SSE 10.4 mph - N/A   Overcast
9:35 AM 73.4 °F - 69.8 °F 88% 29.88 in 4.0 mi South 8.1 mph - N/A   Overcast
9:55 AM 73.4 °F - 69.6 °F 88% 29.89 in 4.0 mi South 9.2 mph - N/A   Overcast
10:15 AM 74.3 °F - 70.2 °F 87% 29.88 in 4.0 mi South 9.2 mph - N/A   Mostly Cloudy
10:35 AM 76.5 °F - 70.7 °F 82% 29.89 in 5.0 mi SSW 5.8 mph - N/A   Mostly Cloudy
10:55 AM 78.4 °F - 71.2 °F 78% 29.88 in 7.0 mi South 4.6 mph - N/A   Scattered Clouds
11:15 AM 79.2 °F - 71.1 °F 76% 29.88 in 7.0 mi South 3.5 mph - N/A   Clear
11:35 AM 81.5 °F 85.9 °F 71.8 °F 72% 29.87 in 7.0 mi SSE 8.1 mph - N/A   Clear
11:55 AM 83.3 °F 88.7 °F 72.1 °F 69% 29.87 in 10.0 mi South 8.1 mph - N/A   Clear
12:15 PM 84.6 °F 90.3 °F 72.1 °F 66% 29.87 in 10.0 mi South 8.1 mph - N/A   Clear
12:35 PM 85.8 °F 92.2 °F 72.5 °F 64% 29.86 in 10.0 mi South 8.1 mph - N/A   Clear
12:55 PM 86.4 °F 93.0 °F 72.3 °F 63% 29.85 in 10.0 mi South 5.8 mph - N/A   Clear
1:15 PM 88.3 °F 95.4 °F 72.5 °F 59% 29.84 in 10.0 mi South 9.2 mph - N/A   Clear
1:35 PM 88.9 °F 96.6 °F 72.7 °F 59% 29.84 in 10.0 mi South 11.5 mph - N/A   Clear
1:55 PM 90.3 °F 98.2 °F 72.9 °F 56% 29.84 in 10.0 mi SSW 11.5 mph - N/A   Clear
2:15 PM 91.2 °F 98.5 °F 72.0 °F 53% 29.84 in 10.0 mi South 12.7 mph - N/A   Clear
2:35 PM 91.9 °F 99.0 °F 71.6 °F 51% 29.83 in 10.0 mi South 13.8 mph - N/A   Clear
2:55 PM 92.7 °F 99.9 °F 71.6 °F 50% 29.82 in 10.0 mi South 12.7 mph 17.3 mph N/A   Clear
3:15 PM 93.6 °F 100.1 °F 70.7 °F 47% 29.81 in 10.0 mi South 11.5 mph 18.4 mph N/A   Clear
3:35 PM 94.1 °F 99.5 °F 69.4 °F 44% 29.81 in 10.0 mi SSW 15.0 mph - N/A   Clear
3:55 PM 94.6 °F 99.4 °F 68.5 °F 42% 29.81 in 10.0 mi SSW 16.1 mph - N/A   Clear
4:15 PM 95.2 °F 100.5 °F 68.9 °F 42% 29.81 in 10.0 mi SSW 13.8 mph 19.6 mph N/A   Clear
4:35 PM 95.4 °F 100.2 °F 68.5 °F 41% 29.81 in 10.0 mi SSW 12.7 mph 17.3 mph N/A   Clear
4:55 PM 95.0 °F 99.0 °F 67.3 °F 40% 29.81 in 10.0 mi SSW 12.7 mph - N/A   Clear
5:15 PM 93.9 °F 97.0 °F 66.2 °F 40% 29.81 in 10.0 mi SSW 12.7 mph - N/A   Clear
5:35 PM 92.8 °F 95.2 °F 65.5 °F 40% 29.81 in 10.0 mi SSW 10.4 mph - N/A   Clear
5:55 PM 90.7 °F 93.2 °F 66.2 °F 44% 29.81 in 10.0 mi SSW 8.1 mph - N/A   Clear
6:15 PM 88.7 °F 91.9 °F 67.1 °F 49% 29.82 in 10.0 mi SSW 6.9 mph - N/A   Clear
6:35 PM 86.7 °F 90.3 °F 68.0 °F 54% 29.82 in 10.0 mi South 5.8 mph - N/A   Clear
6:55 PM 85.5 °F 88.2 °F 67.3 °F 54% 29.82 in 7.0 mi South 5.8 mph - N/A   Clear
7:15 PM 84.0 °F 86.8 °F 67.5 °F 57% 29.82 in 10.0 mi South 4.6 mph - N/A   Clear
7:35 PM 82.6 °F 85.5 °F 68.0 °F 61% 29.82 in 10.0 mi South 5.8 mph - N/A   Clear
7:55 PM 81.5 °F 84.2 °F 67.8 °F 63% 29.82 in 10.0 mi South 5.8 mph - N/A   Clear
8:15 PM 80.2 °F 82.8 °F 68.0 °F 66% 29.83 in 10.0 mi SSW 5.8 mph - N/A   Clear
8:35 PM 80.6 °F 83.1 °F 67.3 °F 64% 29.84 in 10.0 mi SSW 6.9 mph - N/A   Clear
8:55 PM 79.7 °F - 67.3 °F 66% 29.84 in 10.0 mi SSW 8.1 mph - N/A   Clear
9:15 PM 78.6 °F - 67.3 °F 68% 29.84 in 10.0 mi South 6.9 mph - N/A   Clear
9:35 PM 78.3 °F - 67.3 °F 69% 29.85 in 10.0 mi South 6.9 mph - N/A   Clear
9:55 PM 77.9 °F - 67.1 °F 69% 29.85 in 10.0 mi SSW 5.8 mph - N/A   Clear
10:15 PM 77.9 °F - 66.4 °F 68% 29.85 in 10.0 mi South 6.9 mph - N/A   Clear
10:35 PM 77.4 °F - 65.8 °F 67% 29.86 in 10.0 mi South 6.9 mph - N/A   Clear
10:55 PM 77.2 °F - 65.3 °F 67% 29.86 in 10.0 mi SSW 6.9 mph - N/A   Clear
11:15 PM 75.2 °F - 65.3 °F 71% 29.87 in 10.0 mi SW 4.6 mph - N/A   Clear
11:35 PM 75.2 °F - 64.9 °F 70% 29.87 in 10.0 mi SW 4.6 mph - N/A   Clear
11:55 PM 74.5 °F - 64.6 °F 71% 29.87 in 10.0 mi SSW 8.1 mph - N/A   Clear